NOK1123 VTBD-VTUU

Flight info

Callsign NOK1123
Flight time N/A
Altitude 31000
Route ROBKA3A ROBKA A1 VENPO VENPO1D
Aircraft B738/M-SDE2E3FGHIRWXY/LB1

Departure

Time 2026-05-07 02:50
Airport Don Mueang International Airport (VTBD)

Arrival

Time N/A
Airport Ubon Ratchathani Airport (VTUU)
Time Latitude Longitude Altitude Speed Heading
2026-05-07 02:34 13.91845 100.60435 30 ft 0 kts 208°
2026-05-07 02:38 13.91850 100.60438 30 ft 2 kts 208°
2026-05-07 02:39 13.91864 100.60445 29 ft 2 kts 208°
2026-05-07 02:39 13.91877 100.60453 28 ft 2 kts 208°
2026-05-07 02:39 13.91890 100.60461 27 ft 2 kts 208°
2026-05-07 02:39 13.91905 100.60473 26 ft 2 kts 256°
2026-05-07 02:40 13.91906 100.60484 26 ft 2 kts 285°
2026-05-07 02:40 13.91898 100.60497 25 ft 2 kts 304°
2026-05-07 02:40 13.91891 100.60510 25 ft 2 kts 297°
2026-05-07 02:40 13.91880 100.60528 25 ft 2 kts 330°
2026-05-07 02:41 13.91870 100.60532 25 ft 2 kts 354°
2026-05-07 02:41 13.91856 100.60529 25 ft 2 kts 32°
2026-05-07 02:41 13.91843 100.60521 25 ft 2 kts 27°
2026-05-07 02:41 13.91830 100.60514 26 ft 2 kts 29°
2026-05-07 02:42 13.91821 100.60509 26 ft 0 kts 29°
2026-05-07 02:45 13.91823 100.60510 26 ft 1 kts 28°
2026-05-07 02:45 13.91852 100.60526 25 ft 5 kts 29°
2026-05-07 02:46 13.91885 100.60545 25 ft 5 kts 29°
2026-05-07 02:46 13.91917 100.60563 24 ft 5 kts 29°
2026-05-07 02:46 13.91961 100.60588 24 ft 10 kts 29°
2026-05-07 02:46 13.92037 100.60631 25 ft 12 kts 28°
2026-05-07 02:47 13.92099 100.60665 27 ft 8 kts 28°
2026-05-07 02:47 13.92152 100.60695 28 ft 8 kts 29°
2026-05-07 02:47 13.92216 100.60730 29 ft 12 kts 28°
2026-05-07 02:47 13.92304 100.60781 30 ft 15 kts 29°
2026-05-07 02:48 13.92397 100.60832 31 ft 14 kts 29°
2026-05-07 02:48 13.92478 100.60878 31 ft 12 kts 28°
2026-05-07 02:48 13.92549 100.60918 32 ft 10 kts 28°
2026-05-07 02:48 13.92643 100.60971 33 ft 18 kts 28°
2026-05-07 02:49 13.92666 100.61058 30 ft 9 kts 131°
2026-05-07 02:49 13.92617 100.61154 25 ft 13 kts 119°
2026-05-07 02:49 13.92543 100.61182 24 ft 36 kts 192°
2026-05-07 02:49 13.92042 100.60908 20 ft 124 kts 208°
2026-05-07 02:50 13.91067 100.60364 24 ft 194 kts 208°
2026-05-07 02:50 13.89988 100.59762 1309 ft 157 kts 207°
2026-05-07 02:50 13.89044 100.59205 1997 ft 164 kts 220°
2026-05-07 02:50 13.88440 100.58205 2553 ft 175 kts 252°
2026-05-07 02:51 13.88062 100.56980 3101 ft 187 kts 248°
2026-05-07 02:51 13.87525 100.55715 3636 ft 201 kts 243°
2026-05-07 02:51 13.86897 100.54390 4162 ft 216 kts 243°
2026-05-07 02:51 13.86202 100.52917 4647 ft 237 kts 243°
2026-05-07 02:52 13.85479 100.51357 5227 ft 253 kts 243°
2026-05-07 02:52 13.84691 100.49648 5778 ft 272 kts 243°
2026-05-07 02:52 13.83775 100.47906 6429 ft 286 kts 234°
2026-05-07 02:52 13.82508 100.46313 7162 ft 295 kts 225°
2026-05-07 02:53 13.81051 100.44800 7753 ft 307 kts 223°
2026-05-07 02:53 13.79442 100.43310 7954 ft 310 kts 215°
2026-05-07 02:53 13.76908 100.42022 8019 ft 303 kts 189°
2026-05-07 02:53 13.75480 100.41925 8411 ft 307 kts 174°
2026-05-07 02:54 13.73439 100.42136 9530 ft 299 kts 171°
2026-05-07 02:54 13.71343 100.42374 10393 ft 303 kts 172°
2026-05-07 02:54 13.69187 100.42622 10915 ft 319 kts 169°
2026-05-07 02:54 13.67014 100.43186 11506 ft 327 kts 154°
2026-05-07 02:55 13.64623 100.45016 12609 ft 324 kts 128°
2026-05-07 02:55 13.63760 100.46269 13075 ft 327 kts 118°
2026-05-07 02:55 13.62810 100.48395 13868 ft 328 kts 107°
2026-05-07 02:55 13.62085 100.51399 14878 ft 331 kts 99°
2026-05-07 02:56 13.61827 100.52967 15359 ft 333 kts 98°
2026-05-07 02:56 13.61513 100.55308 16075 ft 336 kts 95°
2026-05-07 02:56 13.61474 100.58516 17011 ft 340 kts 86°
2026-05-07 02:56 13.61609 100.60135 17485 ft 342 kts 84°
2026-05-07 02:57 13.61915 100.62578 18126 ft 346 kts 82°
2026-05-07 02:57 13.62278 100.64998 18756 ft 349 kts 82°
2026-05-07 02:57 13.62662 100.67473 19321 ft 354 kts 81°
2026-05-07 02:57 13.63045 100.69972 19923 ft 357 kts 82°
2026-05-07 02:58 13.63425 100.72508 20523 ft 359 kts 82°
2026-05-07 02:58 13.63802 100.75053 21052 ft 364 kts 82°
2026-05-07 02:58 13.64307 100.78495 21734 ft 369 kts 82°
2026-05-07 02:58 13.64561 100.80239 22114 ft 370 kts 82°
2026-05-07 02:59 13.64940 100.82842 22635 ft 374 kts 82°
2026-05-07 02:59 13.65326 100.85492 23131 ft 378 kts 82°
2026-05-07 02:59 13.65717 100.88187 23582 ft 383 kts 81°
2026-05-07 02:59 13.66108 100.90881 24100 ft 385 kts 81°
2026-05-07 03:00 13.66788 100.94495 24701 ft 390 kts 74°
2026-05-07 03:00 13.67361 100.96278 25066 ft 391 kts 68°
2026-05-07 03:00 13.68599 100.98766 25544 ft 393 kts 57°
2026-05-07 03:00 13.70183 101.01082 26010 ft 396 kts 53°
2026-05-07 03:01 13.71891 101.03288 26457 ft 399 kts 50°
2026-05-07 03:01 13.73682 101.05503 26865 ft 403 kts 50°
2026-05-07 03:01 13.76085 101.08455 27522 ft 404 kts 50°
2026-05-07 03:01 13.77288 101.09946 27767 ft 407 kts 50°
2026-05-07 03:02 13.79072 101.12179 28206 ft 409 kts 50°
2026-05-07 03:02 13.80878 101.14459 28526 ft 414 kts 50°
2026-05-07 03:02 13.82700 101.16776 28928 ft 417 kts 50°
2026-05-07 03:02 13.84529 101.19112 29237 ft 421 kts 51°
2026-05-07 03:03 13.86367 101.21468 29654 ft 423 kts 51°
2026-05-07 03:03 13.88261 101.23819 29937 ft 428 kts 49°
2026-05-07 03:03 13.90313 101.26041 30348 ft 430 kts 43°
2026-05-07 03:03 13.92618 101.28048 30627 ft 434 kts 36°
2026-05-07 03:04 13.95152 101.29790 30855 ft 439 kts 31°
2026-05-07 03:04 13.97814 101.31307 30870 ft 442 kts 27°
2026-05-07 03:04 14.04225 101.34589 30878 ft 435 kts 26°
2026-05-07 03:05 14.08733 101.36919 30890 ft 434 kts 27°
2026-05-07 03:05 14.14144 101.39826 30906 ft 436 kts 28°
2026-05-07 03:06 14.19485 101.42775 30896 ft 435 kts 28°
2026-05-07 03:06 14.24787 101.45829 30710 ft 434 kts 30°
2026-05-07 03:07 14.27370 101.47409 30556 ft 433 kts 31°
2026-05-07 03:07 14.29935 101.49064 30483 ft 428 kts 33°
2026-05-07 03:07 14.34845 101.52540 30407 ft 429 kts 36°
2026-05-07 03:08 14.39554 101.56372 30603 ft 431 kts 40°
2026-05-07 03:08 14.41810 101.58427 30711 ft 434 kts 42°
2026-05-07 03:08 14.44001 101.60583 30814 ft 436 kts 45°
2026-05-07 03:09 14.46110 101.62837 30930 ft 436 kts 47°
2026-05-07 03:09 14.48115 101.65167 31028 ft 436 kts 50°
2026-05-07 03:09 14.51851 101.70130 31119 ft 437 kts 54°
2026-05-07 03:10 14.55129 101.75404 31035 ft 438 kts 60°
2026-05-07 03:10 14.56595 101.78162 30916 ft 438 kts 62°
2026-05-07 03:10 14.57922 101.80958 30772 ft 437 kts 65°
2026-05-07 03:11 14.60195 101.86765 30734 ft 440 kts 70°
2026-05-07 03:11 14.61115 101.89767 30933 ft 446 kts 74°
2026-05-07 03:11 14.61828 101.92917 30917 ft 450 kts 78°
2026-05-07 03:12 14.62828 101.99176 30910 ft 438 kts 81°
2026-05-07 03:12 14.63711 102.05363 30903 ft 435 kts 81°
2026-05-07 03:13 14.64639 102.11531 30900 ft 437 kts 80°
2026-05-07 03:13 14.65619 102.17724 30897 ft 435 kts 80°
2026-05-07 03:14 14.66619 102.23877 30895 ft 436 kts 80°
2026-05-07 03:15 14.68140 102.33136 30894 ft 437 kts 79°
2026-05-07 03:15 14.69152 102.39284 30896 ft 437 kts 80°
2026-05-07 03:16 14.70168 102.45476 30902 ft 436 kts 79°
2026-05-07 03:16 14.71178 102.51643 30900 ft 436 kts 80°
2026-05-07 03:17 14.72203 102.57903 30899 ft 453 kts 79°
2026-05-07 03:17 14.72734 102.61136 30899 ft 465 kts 80°
2026-05-07 03:17 14.73278 102.64468 30896 ft 478 kts 80°
2026-05-07 03:17 14.73834 102.67874 30893 ft 490 kts 80°
2026-05-07 03:18 14.74407 102.71388 30890 ft 500 kts 80°
2026-05-07 03:18 14.75576 102.78580 30888 ft 514 kts 80°
2026-05-07 03:19 14.76764 102.85908 30891 ft 521 kts 80°
2026-05-07 03:19 14.77962 102.93303 30898 ft 523 kts 80°
2026-05-07 03:20 14.79164 103.00725 30903 ft 524 kts 80°
2026-05-07 03:20 14.80359 103.08124 30902 ft 524 kts 80°
2026-05-07 03:21 14.81550 103.15511 30902 ft 524 kts 80°
2026-05-07 03:21 14.82737 103.22890 30899 ft 520 kts 80°
2026-05-07 03:21 14.83327 103.26559 30895 ft 507 kts 80°
2026-05-07 03:22 14.83889 103.30057 30906 ft 489 kts 80°
2026-05-07 03:22 14.84437 103.33475 30897 ft 471 kts 80°
2026-05-07 03:22 14.84959 103.36736 30899 ft 454 kts 80°
2026-05-07 03:22 14.85464 103.39901 30896 ft 438 kts 80°
2026-05-07 03:23 14.85970 103.42942 30895 ft 425 kts 78°
2026-05-07 03:23 14.87381 103.48862 30893 ft 429 kts 73°
2026-05-07 03:24 14.89087 103.54896 30880 ft 441 kts 73°